Location: Devore Heights
(34.2372°N, 117.4156°W)
Time: 00:05:53
(UTC+00:00)

Transit 4A - Pass Details

Date: 20 September 2024
Orbit: 864 x 978 km, 66.8° (Epoch: 13 October)

Event Time Altitude Azimuth Distance (km) Brightness Sun altitude
Rises 19:40:20 0° 322° (NW) 3,631 10.7 56.4°
Reaches altitude 10° 19:43:07 10° 313° (NW) 2,696 10.2 56.4°
Maximum altitude 19:48:37 32° 252° (WSW) 1,589 9.8 56.4°
Drops below altitude 10° 19:54:09 10° 191° (SSW) 2,715 11.1 56.3°
Sets 19:56:58 0° 182° (S) 3,660 11.5 56.3°
